This demonstration page uses our WeatherBlox Daily Observations layout. Learn more.

41.55636, -103.73856

Hourly Observations for January 2, 2019

Temp ( °F °C ) Dew Point ( °F °C ) Humidity (%) Winds ( mph kmh ) Pressure ( in mb ) Visibility ( mi km ) Precip ( " mm )
12:53 am 00:53 Clear 2 -16.7 -2 -18.9 83 83 NW 6 9 30.24 1024 10 16.09344 0 0
1:53 am 01:53 Clear 3 -16.1 -2 -18.9 79 79 WNW 6 9 30.21 1023 10 16.09344 0 0
2:53 am 02:53 Clear 6 -14.4 -1 -18.3 73 73 NW 12 19 30.21 1023 10 16.09344 0 0
3:53 am 03:53 Clear 7 -13.9 0 -17.8 73 73 W 8 13 30.18 1022 10 16.09344 0 0
4:53 am 04:53 Clear 13 -10.6 3 -16.1 64 64 NW 16 26 30.15 1021 10 16.09344 0 0
5:53 am 05:53 Clear 10 -12.2 2 -16.7 69 69 NW 10 17 30.21 1023 10 16.09344 0 0
6:53 am 06:53 Clear 11 -11.7 2 -16.7 67 67 NW 9 15 30.24 1024 10 16.09344 0 0
7:53 am 07:53 Sunny 15 -9.4 4 -15.6 61 61 NW 8 13 30.24 1024 10 16.09344 0 0
8:53 am 08:53 Sunny 21 -6.1 7 -13.9 54 54 WNW 10 17 30.24 1024 10 16.09344 0 0
9:53 am 09:53 Sunny 27 -2.8 8 -13.3 45 45 WNW 13 20 30.21 1023 10 16.09344 0 0
10:53 am 10:53 Sunny 32 0 10 -12.2 40 40 WNW 15 24 30.18 1022 10 16.09344 0 0
11:53 am 11:53 Sunny 35 1.7 11 -11.7 37 37 WNW 15 24 30.15 1021 10 16.09344 0 0
12:53 pm 12:53 Sunny 38 3.3 12 -11.1 34 34 WNW 9 15 30.12 1020 10 16.09344 0 0
1:53 pm 13:53 Sunny 39 3.9 12 -11.1 33 33 WNW 14 22 30.09 1019 10 16.09344 0 0
2:53 pm 14:53 Sunny 39 3.9 13 -10.6 34 34 WNW 13 20 30.09 1019 10 16.09344 0 0
3:53 pm 15:53 Sunny 37 2.8 14 -10 39 39 WNW 14 22 30.09 1019 10 16.09344 0 0
4:53 pm 16:53 Clear 31 -0.6 15 -9.4 52 52 W 6 9 30.12 1020 10 16.09344 0 0
5:53 pm 17:53 Clear 27 -2.8 13 -10.6 55 55 W 10 17 30.15 1021 10 16.09344 0 0
6:53 pm 18:53 Clear 22 -5.6 12 -11.1 66 66 NW 10 17 30.18 1022 10 16.09344 0 0
7:53 pm 19:53 Clear 22 -5.6 11 -11.7 63 63 NW 8 13 30.18 1022 10 16.09344 0 0
8:53 pm 20:53 Clear 18 -7.8 9 -12.8 68 68 NW 8 13 30.15 1021 10 16.09344 0 0
9:53 pm 21:53 Clear 19 -7.2 9 -12.8 65 65 NW 8 13 30.12 1020 10 16.09344 0 0
10:53 pm 22:53 Clear 17 -8.3 9 -12.8 70 70 NW 8 13 30.09 1019 10 16.09344 0 0
11:53 pm 23:53 Clear 16 -8.9 8 -13.3 71 71 NW 7 11 30.09 1019 10 16.09344 0 0

Powered by AerisWeather